Weather History for KLPR - August, 2013

Change the Weather History Date:

Thursday, August 1, 2013

  Actual Average (KCLE) Record (KCLE)
Temperature  
Mean Temperature 70 °F 73 °F  
Max Temperature 79 °F 82 °F 95 °F (1917)
Min Temperature 62 °F 64 °F 47 °F (1952)
Degree Days  
Heating Degree Days 0 0  
Month to date heating degree days 0  
Since 1 June heating degree days 46  
Since 1 July heating degree days 4  
Cooling Degree Days 6 8  
Month to date cooling degree days 8  
Year to date cooling degree days 500  
Since 1 June cooling degree days 441  
Growing Degree Days 20 (Base 50)    
Moisture  
Dew Point 63 °F    
Average Humidity 81    
Maximum Humidity 94    
Minimum Humidity 53    
Precipitation  
Precipitation 0.09 in 0.12 in 0.92 in (1979)
Month to date precipitation 0.12  
Year to date precipitation 22.15  
Snow  
Snow 0.00 in 0.00 in - ()
Month to date snowfall 0.0  
Since 1 June snowfall 0.0  
Since 1 July snowfall 0.0  
Snow Depth -    
Sea Level Pressure  
Sea Level Pressure 29.91 in    
Wind  
Wind Speed 7 mph (West)    
Max Wind Speed 10 mph    
Max Gust Speed 16 mph    
Visibility 9 miles    
Events Rain , Thunderstorm    
T = Trace of Precipitation, MM = Missing Value Source: NWS Daily Summary

Daily Weather History Graph

Daily Weather History Graph

Search for Another Location

Airport or City:

Trip Planner

Search our weather history database for the weather conditions in past years. The results will help you decide how hot, cold, wet, or windy it might be!

Date:

Astronomy

Aug. 01, 2013 Rise Set
Actual Time 6:24 AM EDT 8:45 PM EDT
Civil Twilight 5:52 AM EDT 9:16 PM EDT
Nautical Twilight 5:14 AM EDT 9:54 PM EDT
Astronomical Twilight 4:31 AM EDT 10:37 PM EDT
Moon 1:59 AM EDT (8/1) 4:53 PM EDT (8/1)
Length of Visible Light 15h 23m
Length of Day
14h 21m
Waning Crescent, 23% of the Moon is Illuminated
Aug 1
Waning Crescent
Aug 6
New
Aug 14
First Quarter
Aug 20
Full
Aug 28
Last Quarter

Hourly Weather History & Observations

Time (EDT) Temp. Dew Point Humidity Pressure Visibility Wind Dir Wind Speed Gust Speed Precip Events Conditions
12:53 AM 69.1 °F 64.9 °F 87% 29.91 in 10.0 mi SW 6.9 mph - 0.00 in   Overcast
1:24 AM 68.0 °F 64.4 °F 88% 29.92 in 5.0 mi SSW 6.9 mph - 0.00 in Rain Light Rain
1:32 AM 68.0 °F 64.4 °F 88% 29.91 in 5.0 mi SW 9.2 mph - 0.00 in Rain Light Rain
1:40 AM 68.0 °F 64.4 °F 88% 29.91 in 4.0 mi SSW 8.1 mph - 0.00 in Rain Light Rain
1:53 AM 68.0 °F 64.9 °F 90% 29.89 in 5.0 mi SW 9.2 mph - 0.00 in Rain Light Rain
2:53 AM 68.0 °F 64.9 °F 90% 29.88 in 4.0 mi WSW 8.1 mph - 0.05 in Rain Light Rain
3:02 AM 68.0 °F 64.4 °F 88% 29.89 in 5.0 mi SW 9.2 mph - 0.00 in Rain Light Rain
3:38 AM 68.0 °F 66.2 °F 94% 29.89 in 10.0 mi West 5.8 mph - 0.00 in   Overcast
3:45 AM 68.0 °F 66.2 °F 94% 29.88 in 10.0 mi WSW 4.6 mph - 0.00 in   Overcast
3:53 AM 68.0 °F 66.0 °F 93% 29.87 in 10.0 mi West 4.6 mph - 0.00 in   Overcast
4:14 AM 68.0 °F 66.2 °F 94% 29.88 in 9.0 mi West 5.8 mph - N/A   Overcast
4:28 AM 68.0 °F 66.2 °F 94% 29.88 in 9.0 mi WNW 5.8 mph - N/A   Overcast
4:41 AM 68.0 °F 64.4 °F 88% 29.88 in 9.0 mi NNW 6.9 mph 16.1 mph N/A   Overcast
4:53 AM 68.0 °F 64.9 °F 90% 29.86 in 10.0 mi NNW 6.9 mph - N/A   Overcast
5:53 AM 68.0 °F 63.0 °F 84% 29.89 in 9.0 mi NNW 6.9 mph - N/A   Overcast
6:45 AM 68.0 °F 62.6 °F 83% 29.92 in 8.0 mi NW 5.8 mph - N/A   Overcast
6:53 AM 68.0 °F 63.0 °F 84% 29.91 in 8.0 mi NNW 5.8 mph - N/A   Overcast
7:00 AM 68.0 °F 62.6 °F 83% 29.92 in 9.0 mi NNW 5.8 mph - N/A   Overcast
7:53 AM 69.1 °F 63.0 °F 81% 29.92 in 9.0 mi NNW 5.8 mph - N/A   Scattered Clouds
8:53 AM 71.1 °F 63.0 °F 75% 29.92 in 10.0 mi NW 5.8 mph - N/A   Scattered Clouds
9:10 AM 71.6 °F 62.6 °F 73% 29.94 in 10.0 mi NNW 6.9 mph - N/A   Mostly Cloudy
9:38 AM 71.6 °F 62.6 °F 73% 29.94 in 10.0 mi NW 5.8 mph - N/A   Overcast
9:53 AM 73.0 °F 62.1 °F 68% 29.92 in 10.0 mi WNW 8.1 mph - N/A   Mostly Cloudy
10:53 AM 75.0 °F 64.0 °F 69% 29.92 in 10.0 mi West 9.2 mph - N/A   Scattered Clouds
11:53 AM 75.0 °F 64.9 °F 71% 29.93 in 10.0 mi NW 4.6 mph - N/A   Partly Cloudy
12:53 PM 77.0 °F 63.0 °F 62% 29.93 in 10.0 mi WNW 9.2 mph - N/A   Scattered Clouds
1:53 PM 77.0 °F 61.0 °F 58% 29.92 in 10.0 mi West 10.4 mph - N/A   Scattered Clouds
2:53 PM 78.1 °F 61.0 °F 56% 29.92 in 10.0 mi NNW 8.1 mph - N/A   Partly Cloudy
3:53 PM 79.0 °F 61.0 °F 54% 29.91 in 10.0 mi WNW 5.8 mph - N/A   Partly Cloudy
4:38 PM 75.2 °F 57.2 °F 53% 29.92 in 10.0 mi Variable 5.8 mph - N/A Thunderstorm Partly Cloudy
4:53 PM 73.9 °F 59.0 °F 59% 29.92 in 9.0 mi NW 4.6 mph - 0.00 in Rain , Thunderstorm Light Thunderstorms and Rain
5:46 PM 64.4 °F 59.0 °F 83% 29.94 in 10.0 mi SSW 8.1 mph - 0.03 in   Overcast
5:53 PM 64.9 °F 60.1 °F 84% 29.93 in 10.0 mi SSW 5.8 mph - 0.03 in   Overcast
6:53 PM 68.0 °F 63.0 °F 84% 29.91 in 10.0 mi SSW 3.5 mph - N/A   Partly Cloudy
7:53 PM 68.0 °F 64.0 °F 87% 29.91 in 10.0 mi West 4.6 mph - 0.00 in   Partly Cloudy
8:53 PM 66.0 °F 63.0 °F 90% 29.91 in 9.0 mi SSW 4.6 mph - N/A   Partly Cloudy
9:53 PM 64.0 °F 61.0 °F 90% 29.91 in 10.0 mi South 3.5 mph - 0.01 in Rain Light Rain
10:53 PM 62.1 °F 59.0 °F 90% 29.93 in 9.0 mi WSW 3.5 mph - 0.00 in   Clear
11:53 PM 62.1 °F 59.0 °F 90% 29.92 in 10.0 mi West 4.6 mph - 0.00 in   Clear